Weather in Kuryaty

Russia / Irkutsk Oblast     54°56′20″N   98°56′26″E
temp.,
°C
wind,
m/s
gust,
m/s
humid.,
%
clouds,
%
prec.,
mm/h
press.,
hPa
HPBL,
m
1 march, mon
mon123:00−20sse1198100 0.1 103520
02:00−20sse1199100 0.2 103420
05:00−20sse1199100 0.1 103220
08:00−22sse1297100 0.1 103020
11:00−17se1385100 0.0 1027183
14:00−13se2482100 0.0 1022347
17:00−12se2486100 0.0 1019386
20:00−15se2295100 0.1 101874
2 march, tue
tue223:00−16se1297100 0.1 101550
02:00−16ese1197100 0.5 101461
05:00−17nne1198100 0.4 101220
08:00−16nw1198100 0.8 101346
11:00−14n1292100 0.4 1013309
14:00−12nne2290100 1.0 1013425
17:00−12n2393100 0.6 1013388
20:00−15n2497100 1.2 1016210
3 march, wed
wed323:00−16nnw1397100 0.6 101789
02:00−18nnw2398100 1.0 101796
05:00−19nw1299100 0.4 101865
08:00−20n1299100 0.8 101999
11:00−19n2293100 0.3 1020296
14:00−16n2287100 0.3 1020511
17:00−16nne2390100 0.1 1022543
20:00−20nne1198100 0.1 102620
4 march, thu
thu423:00−23n0098100 0.0 102820
02:00−24ene0199100 0.0 102920
05:00−23se1198100 0.0 103120
08:00−24se1297100 0.0 103321
11:00−19se239298 0.0 1032228
14:00−13se238998 0.0 1031322
17:00−11se2491100 0.1 1031345
20:00−16sse2497100 0.1 103276
5 march, fri
fri523:00−17sse359683 0.0 1032107
02:00−18sse359772 0.0 103098
05:00−17se239433 0.0 102978
08:00−15se249267 0.0 1028109
11:00−11se2490100 0.0 1025169
14:00−6se2491100 0.0 1022231
17:00−4se369256 0.0 1019316
20:00−10se359446 0.0 1019113